Location: Observatorio del Centro Ecologico de Sonora
(29.0667°N, 110.9333°W)
Time: 23:59:40
(UTC-07:00)

ISS - Visible Passes

Search period start: 21 July 2017 00:00
Search period end: 31 July 2017 00:00
Orbit: 400 x 408 km, 51.6° (Epoch: 22 July)

Date Brightness Start Highest point End Pass type
(mag) Time Alt. Az. Time Alt. Az. Time Alt. Az.
21 Jul -3.4 20:34:33 10° SSW 20:37:35 39° SE 20:38:01 36° ESE visible
22 Jul -1.4 04:43:37 10° NNW 04:46:29 27° NE 04:49:19 10° ESE visible
22 Jul -2.3 19:43:14 10° S 19:45:25 17° SE 19:47:36 10° E visible
22 Jul -1.6 21:18:55 10° W 21:21:42 26° NW 21:24:30 10° NNE visible
23 Jul -0.5 03:52:07 10° N 03:54:01 14° NE 03:55:55 10° ENE visible
23 Jul -3.2 20:26:08 10° SW 20:29:20 58° NW 20:32:32 10° NE visible
24 Jul -3.9 04:35:04 10° NW 04:38:19 86° NE 04:41:35 10° SE visible
24 Jul -0.3 21:12:38 10° NW 21:13:43 11° NW 21:14:50 10° NNW visible
25 Jul -2.2 03:42:56 10° NNW 03:45:58 35° NE 03:48:59 10° ESE visible
25 Jul -0.9 20:18:39 10° W 20:21:12 21° NW 20:23:44 10° NNE visible
26 Jul -2.3 04:31:20 20° S 04:31:20 20° S 04:32:47 10° S visible
